カタログに戻る

YAOGAN 20C

運用中軍事LEO
NORAD 40111·PAYLOAD·🇨🇳 China

打ち上げ Aug 9, 2014 から Jiuquan Satellite Launch Center

Loading…

次のパス (今後24時間)

TLE

最新Source: Space-Track

元期: Sep 14, 2026, 23:43 UTC

1 40111U 14047C   26257.98823412 -.00000106  00000-0 -15712-4 0  9991
2 40111  63.3771 148.1405 0397957  15.5917 345.6960 13.45455710594373

AllMySatでYAOGAN 20Cをリアルタイム追跡

Download on the App Store